This is the latest recevied weather packets stored in our database for station/object WV5G-13. If no packets are shown the sender has not sent any weather packets the latest 10 day(s).
| Time | Temp. | Humidity | Pressure | Rain* | Wind** | Luminosity | Snow |
|---|---|---|---|---|---|---|---|
| 1777363150 | 13.33° C | 59% | 1009.9 hPa | 0 mm | - | 0 W/m² | - |
| 1777362846 | 13.33° C | 60% | 1010 hPa | 0 mm | - | 0 W/m² | - |
| 1777362544 | 13.89° C | 59% | 1009.8 hPa | 0 mm | - | 0 W/m² | - |
| 1777362242 | 13.89° C | 59% | 1009.7 hPa | 0 mm | - | 0 W/m² | - |
| 1777361939 | 14.44° C | 58% | 1010 hPa | 0 mm | - | 0 W/m² | - |
| 1777361635 | 14.44° C | 57% | 1010 hPa | 0 mm | - | 0 W/m² | - |
| 1777361333 | 14.44° C | 57% | 1009.8 hPa | 0 mm | - | 0 W/m² | - |
| 1777361030 | 14.44° C | 57% | 1009.9 hPa | 0 mm | - | 0 W/m² | - |
| 1777360728 | 13.89° C | 56% | 1009.8 hPa | 0 mm | - | 0 W/m² | - |
| 1777360425 | 13.89° C | 57% | 1009.8 hPa | 0 mm | - | 0 W/m² | - |
| 1777360122 | 13.33° C | 57% | 1010.1 hPa | 0 mm | - | 0 W/m² | - |
| 1777359818 | 12.78° C | 58% | 1010.1 hPa | 0 mm | - | 0 W/m² | - |
| 1777359516 | 12.22° C | 58% | 1010 hPa | 0 mm | - | 0 W/m² | - |
| 1777359212 | 11.67° C | 58% | 1010.2 hPa | 0 mm | - | 0 W/m² | - |
| 1777358910 | 12.22° C | 57% | 1009.6 hPa | 0 mm | - | 0 W/m² | - |
| 1777358607 | 12.78° C | 57% | 1009.6 hPa | 0 mm | - | 0 W/m² | - |
| 1777358305 | 12.78° C | 56% | 1009.8 hPa | 0 mm | - | 0 W/m² | - |
| 1777358002 | 13.33° C | 55% | 1009.8 hPa | 0 mm | - | 0 W/m² | - |
| 1777357700 | 13.33° C | 54% | 1009.6 hPa | 0 mm | - | 0 W/m² | - |
| 1777357396 | 13.33° C | 54% | 1009.7 hPa | 0 mm | - | 0 W/m² | - |
| 1777357093 | 13.33° C | 53% | 1009.7 hPa | 0 mm | - | 0 W/m² | - |
| 1777356790 | 13.33° C | 53% | 1009.5 hPa | 0 mm | - | 0 W/m² | - |
| 1777356488 | 13.89° C | 52% | 1009.6 hPa | 0 mm | - | 0 W/m² | - |
| 1777356184 | 13.89° C | 51% | 1009.6 hPa | 0 mm | - | 0 W/m² | - |
| 1777355881 | 14.44° C | 50% | 1009.3 hPa | 0 mm | - | 0 W/m² | - |
* Rain latest hour (hover to see other rain measurements)
** Current wind speed in m/s (hover to see current wind gust speed)